www.pogodaiklimat.ru

Погода и климат >> Архив погоды >> Узбекистан >> Термез


АРХИВ ПОГОДЫ в Термезе

Время (UTC), дата Ветер
(напр.,м/с)
 
Видим.   Явления Облачность Т
(С)
Тd
(С)
f
(%)
Тe
(С)
Тes
(С)
Комфортность P
(гПа)
Po
(гПа)
Тmin
(С)
Tmax
(С)
R
(мм)
R24
(мм)
S
(см)
09 11.07 ЮЗ 3 10 км ясно +40.6 +4.5 11 +38 +53 опасность
солнечного
удара
996.3 963.4
12 11.07 З 2 10 км ясно +40.8 -1.2 7 +37 +43 очень
жарко
995.0 962.1 475
15 11.07 штиль 0 10 км ясно +34.6 +11.0 24 +34 +34 очень
жарко
995.7 962.1 +42.5
18 11.07 ЮВ 1 10 км ясно +30.0 +13.5 36 +31 +31 жарко 996.8 962.8 +42.5
21 11.07 ЮВ 1 10 км ясно +25.8 +13.1 45 +28 +28 жарко 997.0 962.5
00 12.07 СВ 2 10 км ясно +23.7 +12.1 48 +25 +25 комфорт 997.5 962.7
03 12.07 ЮВ 2 10 км ясно +30.0 +13.0 35 +31 +37 жарко 998.2 964.1
06 12.07 ЮЗ 4 10 км ясно +36.8 +9.7 19 +35 +48 очень
жарко
997.1 963.8 +22.2
09 12.07 ЮЗ 1 10 км ясно +42.0 +5.3 11 +39 +61 опасность
солнечного
удара
994.9 962.1
12 12.07 В 2 10 км ясно +42.2 +6.5 12 +40 +46 очень
жарко
993.5 960.8
15 12.07 СЗ 2 10 км ясно +33.7 +12.1 27 +34 +34 очень
жарко
994.7 961.1 +43.5
18 12.07 Ю 1 10 км ясно +31.9 +11.1 28 +32 +32 жарко 995.3 961.5 +43.5
21 12.07 С 2 10 км ясно +27.0 +13.2 43 +29 +29 жарко 995.8 961.5
00 13.07 С 2 10 км ясно +25.3 +14.6 52 +28 +28 жарко 996.4 661.9
03 13.07 штиль 0 10 км ясно +30.9 +15.2 39 +33 +41 душно 997.2 963.3
06 13.07 ЮЗ 2 10 км ясно +37.4 +7.8 16 +35 +53 опасность
солнечного
удара
996.4 963.2 +23.4
09 13.07 З 4 10 км ясно +42.3 +8.5 13 +40 +53 опасность
солнечного
удара
994.5 961.9
12 13.07 З 2 10 км ясно +42.4 +2.3 9 +39 +45 очень
жарко
993.4 960.7
15 13.07 З 2 10 км ясно +36.5 +11.1 22 +36 +36 очень
жарко
994.0 960.7 +43.2
18 13.07 З 5 10 км ясно +33.6 +8.4 21 +32 +32 жарко 995.0 961.4 +43.2
21 13.07 Ю 3 10 км ясно +30.2 +8.6 26 +30 +30 жарко 994.9 961.0
00 14.07 СВ 3 10 км ясно +23.3 +10.3 44 +25 +25 комфорт 996.3 961.6
03 14.07 СЗ 2 10 км ясно +29.0 +11.3 33 +30 +35 жарко 996.8 962.7
06 14.07 З 4 6000 м мгла ясно +38.3 +7.1 15 +36 +48 очень
жарко
995.9 962.8 +23.0
09 14.07 З 7 10 км ясно +41.8 +6.7 12 +39 +44 очень
жарко
994.0 961.3
12 14.07 З 5 10 км 3/3 2000 м
[Cb cap]
+41.1 +6.8 13 +39 +41 очень
жарко
993.9 961.1 201
15 14.07 ЮЗ 3 10 км 3/3 2000 м
[Cb cap]
+32.2 +6.5 20 +30 +30 жарко 995.2 961.4 +42.1
18 14.07 штиль 0 10 км 3/0
[Ac trans]
+30.1 +10.3 29 +30 +30 жарко 996.4 962.4 +42.1
21 14.07 штиль 0 10 км ясно +27.2 +8.2 30 +27 +27 жарко 996.5 962.0
00 15.07 штиль 0 10 км ясно +24.2 +14.0 53 +27 +27 жарко 996.4 961.8
03 15.07 штиль 0 10 км ясно +28.5 +14.5 42 +31 +38 душно 997.0 962.9
06 15.07 Ю 2 10 км ясно +36.0 +13.5 26 +36 +55 опасность
солнечного
удара
996.6 963.3 +21.6
09 15.07 ЮЗ 3 10 км ясно +41.0 +9.9 16 +40 +55 опасность
солнечного
удара
961.8 961.8 60
12 15.07 З 2 10 км ясно +41.2 +11.7 17 +40 +46 очень
жарко
993.2 960.4
15 15.07 ЮВ 1 10 км ясно +35.3 +17.4 35 +39 +39 очень
душно
992.9 959.7 +42.5 190
18 15.07 С 3 10 км ясно +31.4 +16.9 42 +35 +35 очень
душно
993.9 960.2 +42.5
21 15.07 штиль 0 10 км ясно +28.2 +15.1 45 +31 +31 душно 994.8 960.6
00 16.07 СВ 1 10 км ясно +24.5 +11.9 45 +26 +26 жарко 996.1 961.5
03 16.07 З 2 10 км ясно +29.2 +11.1 33 +30 +35 жарко 997.2 963.1
06 16.07 ЮЗ 1 10 км ясно +35.8 +9.3 20 +34 +56 опасность
солнечного
удара
997.2 963.7 +23.4
09 16.07 ЮЗ 3 10 км ясно +42.2 +5.9 11 +39 +55 опасность
солнечного
удара
995.1 962.3
12 16.07 В 1 10 км {ливн. осадки} ясно +42.8 +6.5 11 +40 +47 очень
жарко
993.9 961.3 +31.3
15 16.07 Ю 1 10 км ясно +36.7 +16.0 29 +39 +39 очень
душно
994.5 961.3 +44.2
18 16.07 В 3 10 км ясно +28.8 +15.3 44 +32 +32 душно 996.1 962.0 +44.2
21 16.07 ЮВ 1 10 км ясно +25.9 +11.8 41 +27 +27 жарко 996.5 962.0
00 17.07 штиль 0 10 км ясно +24.2 +13.6 52 +26 +26 жарко 997.8 963.1
03 17.07 ЮЗ 2 10 км ясно +28.3 +15.4 45 +31 +37 душно 999.0 964.7
06 17.07 З 4 10 км ясно +36.9 +5.5 14 +34 +46 очень
жарко
998.2 964.8 +22.3
09 17.07 З 4 10 км ясно +41.2 +3.8 10 +38 +50 очень
жарко
996.4 963.5
12 17.07 З 4 10 км ясно +41.7 +4.6 10 +39 +42 очень
жарко
994.8 962.0
15 17.07 З 2 10 км ясно +35.0 +10.6 23 +34 +34 очень
жарко
995.0 961.6 +42.6
18 17.07 Ю 2 10 км ясно +30.3 +10.2 29 +30 +30 жарко 995.6 961.7 +42.6
21 17.07 ЮЗ 1 10 км ясно +27.5 +9.8 33 +28 +28 жарко 996.0 961.7
00 18.07 штиль 0 10 км ясно +23.4 +10.2 43 +25 +25 комфорт 997.5 962.7
03 18.07 З 3 10 км ясно +28.0 +12.2 38 +29 +34 жарко 998.6 964.3
06 18.07 ЮЗ 4 10 км ясно +36.4 +8.6 18 +35 +47 очень
жарко
998.0 964.6 +22.2

 

Местоположение метеостанции Термез (Сухрандарьинская область, Узбекистан): широта 37.23 долгота 67.27 высота над уровнем моря 310 м.

В архиве по умолчанию представлена погода в Термезе за последнюю неделю. Архивные данные за месяц целиком и за предыдущие месяцы, начиная с января 2011 года, Вы можете получить, выбрав интересующий диапазон дат из раскрывающегося списка и нажав кнопку "Ввод!".


*Определитесь, кто Вы:
робот инопланетянин человек

Внимание! Время в таблицах - всемирное. Для получения местного времени необходимо прибавить поправку, которая равна 5 ч.

Смотрите также архив погоды в соседних городах и на ближайших метеорологических станциях:

Погода в Ширабаде (Сухрандарьинская область, Узбекистан) (54 км)
Погода в Мазари-Шарифе (Афганистан) (58 км)
Погода в Шурчи (Сухрандарьинская область, Узбекистан) (98 км)
Погода в Байсуне (Сухрандарьинская область, Узбекистан) (108 км)
Погода в Койтендаге (Дашогузский велаят, Туркменистан) (115 км)
Погода в Акрабате (Узбекистан) (120 км)
Погода в Денау (Сухрандарьинская область, Узбекистан) (128 км)
Погода в Ганжине (Таджикистан) (140 км)
Погода в Дехканабаде (Сырдарьинская область, Узбекистан) (142 км)
Погода в Исанбай (Таджикистан) (147 км)

Пояснения к столбцам:

Ветер - указаны скорость ветра в м/с - средняя за 10 мин, порывы в срок и между сроками (в фигурных скобках) и направление, откуда дует ветер: С - северный, СВ - северо-восточный, В - восточный, ЮВ - юго-восточный, Ю - южный, ЮЗ - юго-западный, З - западный, СЗ - северо-западный.
Видимость - горизонтальная дальность видимости в метрах или километрах. При видимости от 1 до 10 км при отсутствии осадков обычно наблюдается дымка, при ухудшении видимости до 1 км и менее - туман. В сухую погоду видимость может ухудшаться дымом, пылью или мглою.
Явления - указаны атмосферные явления, наблюдавшиеся в срок или в последний час перед сроком; фигурными скобками обозначены явления, наблюдавшиеся между сроками (за 1-3 часа до срока); квадратными скобками обозначены град или гололедные отложения с указанием их диаметра в мм.
Облачность - указаны через наклонную черту общая и нижняя облачность в баллах и высота нижней границы облаков в метрах; квадратными скобками обозначены формы облаков: Ci - перистые, Cs - перисто-слоистые, Cc - перисто-кучевые, Ac - высококучевые, As - высокослоистые, Sc - слоисто-кучевые, Ns - слоисто-дождевые, Cu - кучевые, Cb - кучево-дождевые. Подробнее классификацию облаков см. в Атласе облаков (PDF).
T - Температура воздуха - температура, измеренная на высоте 2 м над землей.
Td - Температура точки росы - температура, при понижении до которой содержащийся в воздухе водяной пар достигнет насыщения.
f - Относительная влажность воздуха - влажноcть воздуха, измеренная на высоте 2 м над землей.
Te - Эффективная температура - температура, которую ощущает одетый по сезону человек в тени. Характеристика душности погоды. При расчете учитывается влияние влажности воздуха и скорости ветра на теплоощущения человека.
Tes - Эффективная температура на солнце - температура, которую ощущает человек, с поправкой на солнечный нагрев. Характеристика знойности погоды. Зависит от высоты солнца над горизонтом, облачности и скорости ветра. Ночью, в пасмурную погоду, а также при ветре 12 м/с и более поправка равна нулю.
P - Атмосферное давление - приведенное к уровню моря атмосферное давление.
Po - Атмосферное давление - измеренное на уровне метеостанции атмосферное давление.
Tmin - Минимальная температура - минимум температуры воздуха на высоте 2 м над землей.
Tmax - Максимальная температура - максимум температуры воздуха на высоте 2 м над землей.
R - Количество осадков - Количество выпавших осадков за период времени, мм. При наведении курсора мыши на число - период времени, за который выпало указанное количество осадков.
R24 - Количество осадков - Количество выпавших осадков за 24 часа, мм.
S - Снежный покров - Высота снежного покрова, см. При наведении курсора мыши на число - состояние снежного покрова и степень покрытия местности в баллах.